Probability
0 0 0 0 0 0 0 0 0 0 0 0 0 0 0 0 0 0 0 0 0 0 0 0 0 0 0 0 0 0 0 0 0 0 0 0 0 0 0 0 0 0 0
0 0 0 0 0 0 0 0 0 0 0 0 0 0 0 0 0 0 0 0 0 0 0 0 0 0 0 0 0 0 0 0 0 0 0 0 0 0 0 0 0 0 0
0 0 0 0 0 0 0 0 0 0 0 0 0 0 0 0 0 0 0 0 0 0 0 0 0 0 0 0 0 0 0 0 0 0 0 0 0 0 0 0 0 0 0
0 0 0 0 0 0 0 0 0 0 0 0 0 0 0 0 0 0 0 0 0 0 0 0 0 0 0 0 0 0 0 0 0 0 0 0 0 0 0 0 0 0 0
0 0 0 0 0 0 0 0 0 0 0 0 0 0 0 0 0 0 0 0 0 0 0 0 0 0 0 0 0 0 0 0 0 0 0 0 0 0 0 0 0 0 0
0 0 0 0 0 0 0 0 0 0 0 0 0 0 0 0 0 0 0 0 0 0 0 0 0 0 0 0 0 0 0 0 0 0 0 0 0 0 0 0 0 0 0
0 0 0 0 0 0 0 0 0 0 0 0 0 0 0 0 0 0 0 0 0 0 0 0 0 0 0 0 0 0 0 0 0 0 0 0 0 0 0 0 0 0 0
0 0 0 0 0 0 0 0 0 0 0 0 0 0 0 0 0 0 0 0 0 0 0 0 0 0 0 0 0 0 0 0 0 0 0 0 0 0 0 0 0 0 0
0 0 0 0 0 0 0 0 0 0 0 0 0 0 0 0 0 0 0 0 0 0 0 0 0 0 0 0 0 0 0 0 0 0 0 0 0 0 0 0 0 0 0
0 0 0 0 0 0 0 0 0 0 0 0 0 0 0 0 0 0 0 0 0 0 0 0 0 0 0 0 0 0 0 0 0 0 0 0 0 0 0 0 0 0 0
0 0 0 0 0 0 0 0 0 0 0 0 0 0 0 0 0 0 0 0 0 0 0 0 0 0 0 0 0 0 0 0 0 0 0 0 0 0 0 0 0 0 0
0 0 0 0 0 0 1 1 0 0 0 0 0 0 0 0 0 0 0 0 0 0 0 0 0 0 0 0 0 0 0 0 0 0 0 0 0 0 0 0 0 0 0
0 0 0 0 0 1 2 2 1 0 0 0 0 0 0 0 0 0 0 0 0 0 0 0 0 0 0 0 0 0 0 0 0 0 0 0 0 0 0 0 0 0 0
0 0 0 0 0 1 2 3 1 0 0 0 0 0 0 0 0 0 0 0 0 0 0 0 0 0 0 0 0 0 0 0 0 0 0 0 0 0 0 0 0 0 0
0 0 0 0 0 0 1 2 1 0 0 0 0 0 0 0 0 0 0 0 0 0 0 0 0 0 0 0 0 0 0 0 0 0 0 0 0 0 0 0 0 0 0
0 0 0 0 0 0 0 0 0 0 0 0 0 0 0 0 0 0 0 0 0 0 0 0 0 0 0 0 0 0 0 0 0 0 0 0 0 0 0 0 0 0 0
0 0 0 0 0 0 0 0 0 0 0 0 0 0 0 0 0 0 0 0 0 0 0 0 0 0 0 0 0 0 0 0 0 0 0 0 0 0 0 0 0 0 0
0 0 0 0 0 0 0 0 0 0 0 0 0 0 0 0 0 0 0 0 0 0 0 0 0 0 0 0 0 0 0 0 0 0 0 0 0 0 0 0 0 0 0
0 0 0 0 0 0 0 1 0 0 0 0 0 0 0 0 0 0 0 0 0 0 0 0 0 0 0 0 0 0 0 0 0 0 0 0 0 0 0 0 0 0 0
0 0 0 0 0 0 0 0 0 0 0 0 0 0 0 0 0 0 0 0 0 0 0 0 0 0 0 0 0 0 0 0 0 0 0 0 0 0 0 0 0 0 0
0 0 0 0 0 0 0 0 0 0 0 0 0 0 0 0 0 0 0 0 0 0 0 0 0 0 0 0 0 0 0 0 0 0 0 0 0 0 0 0 0 0 0
0 0 0 0 0 0 0 0 0 0 0 0 0 0 0 0 0 0 0 0 0 0 0 0 0 0 0 0 0 0 0 0 0 0 0 0 0 0 0 0 0 0 0
0 0 0 0 0 0 0 0 0 0 0 0 0 0 0 0 0 0 0 0 0 0 0 0 0 0 0 0 0 0 0 0 0 0 0 0 0 0 0 0 0 0 0
0 0 0 0 0 0 0 0 0 0 0 0 0 0 0 0 0 0 0 0 0 0 0 0 0 0 0 0 0 0 0 0 0 0 0 0 0 0 0 0 0 0 0
0 0 0 0 0 0 0 0 0 0 0 0 0 0 0 0 0 0 0 0 0 0 0 0 0 0 0 0 0 0 0 0 0 0 0 0 0 0 0 0 0 0 0
0 0 0 0 0 0 0 0 0 0 0 0 0 0 0 0 0 0 0 0 0 0 0 0 0 0 0 0 0 0 0 0 0 0 0 0 0 0 0 0 0 0 0
Wind_Speed
9 11 12 13 13 13 13 12 12 13 13 13 14 14 14 14 14 15 15 15 16 17 18 18 19 19 19 19 20 20 20 20 20 20 21 22 22 22 22 21 17 17 23
12 13 13 12 13 13 13 13 12 12 13 13 14 14 14 14 15 15 15 15 16 17 17 18 19 19 19 19 19 20 20 19 19 17 17 20 21 22 22 22 21 17 23
13 13 14 12 13 13 13 13 12 12 13 13 14 14 14 14 15 15 15 15 16 17 17 18 19 19 19 19 19 19 19 19 17 14 14 15 18 22 22 22 22 23 23
14 13 13 13 13 14 13 13 12 13 13 13 14 14 14 14 15 15 15 15 16 17 17 18 18 18 18 19 19 19 19 18 15 13 13 15 16 21 23 23 23 23 23
13 12 13 13 13 14 13 13 12 13 13 13 14 14 14 14 14 15 15 15 16 16 17 18 18 18 18 18 19 19 18 16 14 15 15 15 15 21 23 23 23 23 23
13 12 14 13 13 13 13 13 13 13 13 13 14 14 14 14 14 15 15 15 15 16 16 17 17 17 17 18 18 18 17 14 13 14 15 15 14 20 22 22 23 23 23
12 12 14 13 13 13 13 13 13 13 13 13 14 14 14 14 14 15 15 15 15 16 16 17 17 17 17 17 17 17 16 13 14 14 14 14 16 20 22 22 23 23 23
12 12 13 12 12 12 12 13 13 13 13 13 14 14 14 14 14 15 15 15 15 16 16 17 17 17 18 18 18 17 14 11 14 14 14 14 17 20 21 22 22 22 23
12 11 11 13 13 12 11 12 12 12 12 13 14 14 13 14 14 14 14 15 16 16 17 17 17 18 18 18 18 17 15 12 13 11 13 12 17 21 22 22 22 23 23
11 11 11 12 12 13 12 12 12 12 12 12 13 12 12 13 13 12 12 15 16 16 17 17 18 18 18 18 17 15 12 10 13 13 11 13 19 21 22 22 22 23 23
10 11 11 11 11 12 12 12 12 12 12 12 12 12 10 10 11 10 13 14 16 16 17 17 18 18 17 17 16 14 10 9 13 11 11 16 20 22 22 22 22 23 23
14 12 11 11 11 11 9 10 9 9 10 9 9 10 7 8 8 10 13 13 15 15 16 17 16 14 10 9 11 10 8 12 11 11 12 19 20 21 22 22 22 23 23
14 12 11 11 11 10 8 8 6 6 7 8 9 9 8 7 7 7 7 8 9 10 9 11 9 8 8 8 8 9 10 10 9 9 13 20 21 22 22 23 23 24 24
14 14 12 11 10 10 9 8 7 6 6 7 8 10 7 5 6 6 5 6 5 5 7 7 7 10 11 11 11 11 11 9 9 9 13 20 21 22 23 23 23 24 24
14 14 13 12 11 10 9 7 8 8 8 8 8 9 9 7 7 7 5 5 6 6 7 8 9 11 11 11 11 12 12 12 12 11 11 21 22 23 23 24 24 24 24
15 14 12 12 12 11 9 8 8 8 8 8 8 10 10 7 7 7 7 6 6 6 7 8 10 10 10 10 11 12 12 11 12 11 11 15 23 23 24 24 24 24 24
15 13 13 12 11 12 11 10 7 7 8 8 8 10 10 9 9 8 7 7 6 7 9 9 11 10 10 10 12 11 10 11 11 11 10 9 12 20 23 24 24 24 24
14 13 12 9 11 12 10 9 7 7 7 7 7 8 10 10 10 8 7 7 8 8 8 9 9 10 10 10 9 9 9 9 11 11 10 9 9 9 17 23 23 23 23
15 14 14 13 12 10 9 7 6 5 6 5 6 7 9 11 11 9 8 8 10 8 8 9 9 10 11 10 9 8 8 8 9 10 11 11 10 10 9 15 20 22 22
14 14 14 13 12 10 7 6 4 4 4 3 5 6 10 9 11 10 8 10 10 9 9 10 12 11 10 11 11 9 8 7 7 8 9 9 9 10 10 10 9 12 20
14 15 16 15 14 11 7 6 6 5 4 3 3 6 9 10 11 10 9 11 10 9 10 13 13 14 11 11 9 8 7 7 7 6 6 7 8 9 9 10 8 7 8
16 17 17 17 15 14 10 7 4 5 4 3 3 5 7 9 10 10 12 11 10 10 12 14 14 10 9 8 6 7 6 5 4 5 5 5 6 6 8 9 9 9 7
16 17 14 16 15 14 11 7 6 5 4 3 4 5 6 8 9 10 12 11 12 12 13 15 14 12 11 7 4 4 6 6 6 4 5 4 5 5 5 6 8 9 8
14 13 14 14 14 13 13 12 12 9 8 8 7 6 7 8 8 9 11 12 12 10 12 13 12 9 12 9 4 1 1 4 6 7 5 4 5 5 5 4 6 7 7
10 11 12 13 13 13 13 13 13 10 7 7 8 9 8 7 7 8 10 11 11 9 11 11 10 9 8 8 6 4 4 3 3 5 6 6 5 3 3 4 4 4 6
8 10 11 12 13 13 13 13 13 13 11 12 11 10 8 6 6 8 9 9 10 9 11 12 10 11 8 8 6 5 4 4 4 4 5 7 5 4 3 2 3 3 4
Wind_Direction
154 149 141 139 131 123 116 109 104 100 95 91 88 85 82 81 81 81 81 80 80 79 79 79 77 75 73 71 71 69 68 67 65 64 63 60 58 56 53 48 49 54 54
149 149 141 141 134 127 122 116 110 104 99 95 91 87 86 83 81 81 82 82 83 82 82 81 79 77 75 73 72 71 70 69 67 65 67 65 60 58 56 54 52 53 53
149 149 147 141 136 132 127 121 115 109 103 98 94 90 87 85 82 80 82 83 84 84 84 84 81 79 77 75 74 73 71 69 67 64 66 66 63 60 60 57 55 54 53
152 152 151 141 140 137 132 127 120 113 107 101 97 93 89 86 83 81 83 84 85 86 86 86 83 82 80 78 77 75 72 68 63 63 66 66 65 63 62 61 59 57 55
155 155 145 146 144 141 137 132 126 119 112 106 101 96 92 89 86 84 84 84 85 87 87 87 85 84 82 81 79 76 73 70 66 69 69 67 66 65 65 64 62 60 58
158 157 150 152 148 146 143 138 132 124 117 111 105 101 97 94 91 89 87 86 87 88 88 88 87 86 85 83 80 77 72 68 70 69 68 67 67 67 67 66 65 63 61
162 161 157 156 151 150 147 143 138 130 123 117 112 107 103 99 96 93 91 91 90 89 89 89 88 87 85 82 80 76 71 64 71 71 70 68 68 68 68 67 65 64 61
165 164 161 156 155 155 152 148 142 136 130 124 119 114 109 104 100 97 96 95 94 92 91 91 90 88 87 84 80 74 65 60 74 72 71 70 70 70 68 67 66 64 62
169 169 168 168 165 160 156 151 147 141 136 130 124 117 110 106 102 99 98 98 97 96 94 93 91 89 87 84 80 75 65 57 73 71 70 67 69 70 68 67 65 64 63
177 177 174 174 174 171 165 156 150 145 139 131 123 115 110 107 103 100 102 101 100 99 97 95 93 90 87 83 79 72 62 68 71 70 69 68 69 70 69 67 65 64 63
186 186 182 180 180 177 171 162 157 149 141 135 128 125 129 125 118 111 100 102 103 101 99 97 95 92 89 81 75 69 65 71 70 67 66 68 70 71 69 67 66 64 63
190 190 188 187 184 181 172 168 169 162 157 157 151 148 140 128 115 111 97 96 99 100 100 98 97 95 91 88 77 71 75 75 71 67 64 67 70 71 70 67 66 64 62
192 190 194 191 188 184 177 174 170 167 165 162 159 154 143 132 129 126 122 115 111 110 105 105 98 88 85 83 80 78 76 73 70 66 60 64 69 71 70 68 67 64 62
195 194 195 193 192 189 183 179 175 172 170 168 166 159 153 147 146 140 134 130 126 116 114 104 97 93 89 84 82 81 77 76 75 71 58 59 65 68 69 68 66 64 62
200 197 196 196 194 190 185 183 181 181 178 174 169 169 165 157 153 145 137 134 128 123 120 114 108 102 95 88 84 83 79 76 75 74 65 58 62 64 66 65 64 63 60
204 200 196 198 197 192 188 186 186 183 178 175 175 176 171 162 157 149 141 135 131 127 120 117 115 107 98 94 88 83 81 80 76 76 74 65 60 60 61 62 61 60 58
207 202 198 199 198 196 194 189 186 183 178 179 178 177 173 165 159 152 146 139 135 128 122 117 114 108 104 99 91 85 81 77 79 76 73 70 66 60 58 58 57 57 55
207 204 200 195 199 197 192 187 182 183 180 178 176 175 174 167 160 151 147 143 140 137 133 128 126 119 112 106 98 90 85 82 78 76 74 70 66 63 59 56 53 52 51
208 203 200 197 197 193 185 177 170 170 172 171 171 171 171 166 160 151 148 145 146 142 138 135 133 130 122 113 104 94 86 82 81 79 77 72 67 65 63 59 54 48 47
207 205 201 196 194 181 166 157 148 146 149 155 165 169 166 164 160 149 147 149 149 145 144 141 136 131 126 122 110 95 85 84 81 79 80 77 71 67 62 57 52 47 44
203 203 200 195 190 178 171 173 171 171 156 152 154 162 165 163 160 154 151 152 156 153 151 146 139 136 135 134 121 109 92 82 82 81 83 84 79 71 65 58 51 45 39
202 202 200 198 193 190 187 176 161 146 144 145 145 154 161 162 162 159 158 158 159 151 151 153 149 144 154 169 152 145 142 140 102 84 90 88 88 82 70 61 55 47 39
205 203 200 198 193 191 179 149 118 108 112 143 163 163 166 165 167 163 164 161 163 162 164 166 166 159 165 175 202 184 167 160 143 133 107 102 99 91 80 69 58 48 40
208 201 200 196 191 186 176 176 176 181 183 183 170 164 159 164 165 165 164 165 167 169 169 172 177 171 166 166 168 228 352 135 153 147 151 133 113 98 89 75 62 51 39
199 194 194 191 188 183 184 188 191 192 181 155 153 155 155 157 161 164 164 166 168 169 170 170 174 172 175 172 163 155 140 129 143 151 154 158 152 128 109 90 68 51 37
186 186 189 189 189 186 188 190 194 186 168 160 163 163 161 157 158 165 164 167 167 168 171 171 172 171 170 168 158 158 159 160 162 152 146 155 155 143 142 118 79 50 31